EW2270 Weather Reports


time (UTC)temp
C
wind
direction
speed
KPH
gust
KPH
rain 1hr
cm
rain 24hr
cm
rain mn
cm
humidity
%
barometer
mb
20260504081558 10 99 3.2 3.2 0.00 0.00 0.00 78 1007.4
20260504080114 11 79 1.6 4.8 0.00 0.00 0.00 77 1007.6
20260504044541 13 207 4.8 9.7 0.00 0.00 0.00 71 1007.6
20260504043038 13 204 4.8 8.0 0.00 0.00 0.00 72 1007.4
20260504041538 13 110 1.6 3.2 0.00 0.00 0.00 76 1007.3
20260504040059 14 110 1.6 6.4 0.00 0.00 0.00 72 1007.2
20260504034538 14 142 1.6 3.2 0.00 0.00 0.00 72 1007.1
20260504033037 16 143 0.0 1.6 0.00 0.00 0.00 67 1006.9
20260504031537 17 143 1.6 4.8 0.00 0.00 0.00 65 1006.8
20260504030035 21 113 1.6 4.8 0.00 0.00 0.00 50 1006.8
20260504024534 23 101 3.2 4.8 0.00 0.00 0.00 44 1006.8
20260504023033 24 356 0.0 3.2 0.00 0.00 0.00 40 1006.8
20260504021532 25 11 1.6 8.0 0.00 0.00 0.00 39 1006.9
20260504020030 25 18 4.8 8.0 0.00 0.00 0.00 37 1007.1
20260504014529 26 345 6.4 12.9 0.00 0.00 0.00 35 1007.2
20260504013028 26 18 8.0 12.9 0.00 0.00 0.00 34 1007.4
20260504011526 26 345 9.7 16.1 0.00 0.00 0.00 32 1007.5
20260504010025 26 7 11.3 17.7 0.00 0.00 0.00 28 1007.6
20260504004537 26 10 11.3 17.7 0.00 0.00 0.00 30 1007.8
20260504003021 26 50 12.9 17.7 0.00 0.00 0.00 30 1007.9
20260504001521 26 36 14.5 25.7 0.00 0.00 0.00 30 1008.1
20260504000020 26 4 14.5 22.5 0.00 0.00 0.00 27 1008.1
20260503234518 26 31 16.1 24.1 0.00 0.00 0.00 26 1008.4
20260503233020 26 11 16.1 25.7 0.00 0.00 0.00 28 1008.4
20260503231515 27 13 12.9 22.5 0.00 0.00 0.00 28 1008.6
20260503230014 26 20 16.1 25.7 0.00 0.00 0.00 28 1008.6
20260503224512 27 30 11.3 20.9 0.00 0.00 0.00 28 1008.8
20260503223009 26 26 9.7 19.3 0.00 0.00 0.00 25 1009.0
20260503221510 26 27 16.1 24.1 0.00 0.00 0.00 26 1009.2
20260503220004 26 356 11.3 19.3 0.00 0.00 0.00 29 1009.4
20260503214503 26 8 8.0 16.1 0.00 0.00 0.00 36 1009.5
20260503213058 26 34 8.0 17.7 0.00 0.00 0.00 33 1009.7
20260503211558 26 29 9.7 17.7 0.00 0.00 0.00 32 1009.9
20260503210055 26 43 8.0 14.5 0.00 0.00 0.00 34 1010.1
20260503204553 26 340 3.2 9.7 0.00 0.00 0.00 34 1010.2
20260503203051 26 219 1.6 9.7 0.00 0.00 0.00 34 1010.4
20260503201549 27 134 0.0 3.2 0.00 0.00 0.00 35 1010.7
20260503200050 25 283 1.6 8.0 0.00 0.00 0.00 39 1010.9
20260503194543 25 271 4.8 8.0 0.00 0.00 0.00 37 1011.0
20260503193044 24 292 3.2 8.0 0.00 0.00 0.00 38 1011.2
20260503191539 23 221 1.6 8.0 0.00 0.00 0.00 40 1011.5
20260503190044 23 302 3.2 9.7 0.00 0.00 0.00 40 1011.7
20260503184535 23 18 0.0 8.0 0.00 0.00 0.00 40 1011.9
20260503183036 22 21 3.2 9.7 0.00 0.00 0.00 41 1012.0
20260503181531 22 331 3.2 9.7 0.00 0.00 0.00 46 1012.1
20260503180031 22 213 3.2 6.4 0.00 0.00 0.00 42 1012.3
20260503174532 21 360 1.6 6.4 0.00 0.00 0.00 43 1012.3
20260503173028 21 6 0.0 8.0 0.00 0.00 0.00 47 1012.4
20260503171525 21 105 1.6 4.8 0.00 0.00 0.00 45 1012.4